RYR90RR LGKR-LIME

Flight info

Callsign RYR90RR
Flight time N/A
Altitude 36000
Route OLGAT DCT OKIMO DCT ENOXA DCT GARGA DCT ANC DCT BOA DCT OGPUD DCT BETMU DCT OSBUL
Aircraft B738/M-SDE2E3FGHIRWXY/LB1

Departure

Time N/A
Airport Corfu Ioannis Kapodistrias International Airport (LGKR)

Arrival

Time 2026-04-28 20:08
Airport Il Caravaggio International Airport (LIME)
Time Latitude Longitude Altitude Speed Heading
2026-04-28 19:39 44.22539 12.02376 36044 ft 399 kts 300°
2026-04-28 19:39 44.23986 11.99015 36019 ft 400 kts 300°
2026-04-28 19:40 44.26829 11.92398 36024 ft 400 kts 300°
2026-04-28 19:40 44.29654 11.85811 35672 ft 391 kts 300°
2026-04-28 19:41 44.31039 11.82578 35332 ft 386 kts 300°
2026-04-28 19:41 44.32407 11.79377 35006 ft 382 kts 300°
2026-04-28 19:41 44.33761 11.76206 34624 ft 379 kts 300°
2026-04-28 19:41 44.35106 11.73054 34278 ft 376 kts 300°
2026-04-28 19:42 44.36439 11.69926 33885 ft 373 kts 300°
2026-04-28 19:42 44.37761 11.66820 33476 ft 370 kts 300°
2026-04-28 19:42 44.39070 11.63741 33081 ft 367 kts 299°
2026-04-28 19:42 44.39950 11.61670 32833 ft 365 kts 299°
2026-04-28 19:43 44.41656 11.57651 32358 ft 361 kts 299°
2026-04-28 19:43 44.42933 11.54637 31992 ft 359 kts 299°
2026-04-28 19:43 44.44198 11.51650 31636 ft 356 kts 299°
2026-04-28 19:43 44.45456 11.48675 31279 ft 354 kts 299°
2026-04-28 19:44 44.46703 11.45723 30938 ft 351 kts 299°
2026-04-28 19:44 44.47942 11.42787 30583 ft 350 kts 299°
2026-04-28 19:44 44.49176 11.39860 30234 ft 348 kts 299°
2026-04-28 19:44 44.50402 11.36949 29874 ft 346 kts 298°
2026-04-28 19:45 44.51621 11.34055 29492 ft 344 kts 298°
2026-04-28 19:45 44.52828 11.31183 29118 ft 341 kts 298°
2026-04-28 19:45 44.53979 11.28298 28734 ft 338 kts 294°
2026-04-28 19:45 44.54912 11.25261 28225 ft 339 kts 290°
2026-04-28 19:46 44.55775 11.22202 27905 ft 337 kts 290°
2026-04-28 19:46 44.56627 11.19156 27530 ft 335 kts 290°
2026-04-28 19:46 44.57480 11.16135 27179 ft 332 kts 290°
2026-04-28 19:46 44.58336 11.13137 26846 ft 330 kts 290°
2026-04-28 19:47 44.59190 11.10168 26504 ft 328 kts 290°
2026-04-28 19:47 44.60041 11.07217 26177 ft 326 kts 290°
2026-04-28 19:47 44.60889 11.04276 25848 ft 323 kts 290°
2026-04-28 19:47 44.61729 11.01359 25531 ft 322 kts 290°
2026-04-28 19:48 44.62572 10.98461 25185 ft 320 kts 291°
2026-04-28 19:48 44.63412 10.95579 24865 ft 318 kts 291°
2026-04-28 19:48 44.64250 10.92706 24532 ft 317 kts 291°
2026-04-28 19:48 44.65082 10.89832 24126 ft 318 kts 290°
2026-04-28 19:49 44.65892 10.87006 23957 ft 311 kts 290°
2026-04-28 19:49 44.66709 10.84144 23334 ft 319 kts 290°
2026-04-28 19:49 44.67533 10.81249 22912 ft 319 kts 290°
2026-04-28 19:49 44.68356 10.78360 22564 ft 317 kts 290°
2026-04-28 19:50 44.69979 10.72659 21928 ft 311 kts 290°
2026-04-28 19:50 44.70778 10.69849 21622 ft 308 kts 290°
2026-04-28 19:50 44.71661 10.67114 21164 ft 308 kts 301°
2026-04-28 19:51 44.73107 10.64850 20459 ft 315 kts 316°
2026-04-28 19:51 44.74893 10.63030 19824 ft 318 kts 324°
2026-04-28 19:51 44.76763 10.61379 19314 ft 316 kts 325°
2026-04-28 19:51 44.78629 10.59777 18842 ft 313 kts 325°
2026-04-28 19:52 44.80477 10.58192 18340 ft 310 kts 325°
2026-04-28 19:52 44.82313 10.56607 17759 ft 309 kts 325°
2026-04-28 19:52 44.84136 10.55024 17188 ft 307 kts 325°
2026-04-28 19:52 44.85923 10.53464 16633 ft 305 kts 325°
2026-04-28 19:53 44.87747 10.51865 16095 ft 304 kts 325°
2026-04-28 19:53 44.89519 10.50309 15732 ft 297 kts 326°
2026-04-28 19:53 44.91245 10.48791 15417 ft 289 kts 325°
2026-04-28 19:53 44.92927 10.47308 15114 ft 281 kts 325°
2026-04-28 19:54 44.94570 10.45858 14823 ft 276 kts 325°
2026-04-28 19:54 44.96193 10.44422 14554 ft 274 kts 325°
2026-04-28 19:54 44.97800 10.42998 14288 ft 282 kts 325°
2026-04-28 19:54 44.99506 10.41483 14005 ft 296 kts 326°
2026-04-28 19:55 45.01265 10.39921 13654 ft 299 kts 326°
2026-04-28 19:55 45.03049 10.38340 13311 ft 298 kts 326°
2026-04-28 19:55 45.04799 10.36787 12983 ft 296 kts 326°
2026-04-28 19:55 45.06519 10.35261 12680 ft 295 kts 326°
2026-04-28 19:56 45.08273 10.33702 12370 ft 293 kts 326°
2026-04-28 19:56 45.09975 10.32189 12066 ft 292 kts 326°
2026-04-28 19:56 45.11710 10.30644 11762 ft 290 kts 326°
2026-04-28 19:56 45.13416 10.29124 11463 ft 289 kts 326°
2026-04-28 19:57 45.15091 10.27631 11168 ft 288 kts 326°
2026-04-28 19:57 45.16806 10.26101 10864 ft 287 kts 326°
2026-04-28 19:57 45.18469 10.24616 10573 ft 286 kts 326°
2026-04-28 19:57 45.20148 10.23115 10280 ft 285 kts 326°
2026-04-28 19:58 45.21813 10.21627 10102 ft 280 kts 326°
2026-04-28 19:58 45.23448 10.20165 9868 ft 277 kts 327°
2026-04-28 19:58 45.25075 10.18708 9567 ft 276 kts 327°
2026-04-28 19:58 45.26697 10.17254 9279 ft 275 kts 327°
2026-04-28 19:59 45.28312 10.15806 8992 ft 274 kts 327°
2026-04-28 19:59 45.29920 10.14363 8716 ft 273 kts 327°
2026-04-28 19:59 45.31543 10.12907 8427 ft 272 kts 327°
2026-04-28 19:59 45.33139 10.11472 8153 ft 271 kts 326°
2026-04-28 20:00 45.34728 10.10044 7887 ft 269 kts 327°
2026-04-28 20:00 45.36307 10.08623 7597 ft 269 kts 327°
2026-04-28 20:00 45.37886 10.07201 7328 ft 268 kts 327°
2026-04-28 20:00 45.39438 10.05803 7061 ft 267 kts 327°
2026-04-28 20:01 45.41007 10.04388 6795 ft 267 kts 327°
2026-04-28 20:01 45.42573 10.02975 6549 ft 265 kts 327°
2026-04-28 20:01 45.44110 10.01588 6422 ft 259 kts 327°
2026-04-28 20:01 45.45617 10.00227 6265 ft 254 kts 327°
2026-04-28 20:02 45.47088 9.98898 6136 ft 247 kts 327°
2026-04-28 20:02 45.48521 9.97602 6027 ft 240 kts 327°
2026-04-28 20:02 45.49952 9.96442 5870 ft 236 kts 341°
2026-04-28 20:02 45.51564 9.96202 5663 ft 232 kts
2026-04-28 20:03 45.53189 9.96170 5374 ft 235 kts 359°
2026-04-28 20:03 45.54826 9.96107 5118 ft 236 kts 358°
2026-04-28 20:03 45.56468 9.96036 4843 ft 236 kts 358°
2026-04-28 20:03 45.58097 9.95966 4579 ft 232 kts 358°
2026-04-28 20:04 45.59177 9.95911 4333 ft 230 kts 358°
2026-04-28 20:04 45.60769 9.95774 4010 ft 225 kts 350°
2026-04-28 20:04 45.62082 9.94755 3826 ft 213 kts 308°
2026-04-28 20:04 45.62675 9.92895 3614 ft 203 kts 284°
2026-04-28 20:05 45.63040 9.90963 3361 ft 199 kts 284°
2026-04-28 20:05 45.63396 9.89078 3090 ft 194 kts 284°
2026-04-28 20:05 45.63735 9.87235 2831 ft 190 kts 283°
2026-04-28 20:05 45.64065 9.85435 2587 ft 185 kts 284°
2026-04-28 20:06 45.64389 9.83673 2347 ft 181 kts 284°
2026-04-28 20:06 45.64695 9.82007 2132 ft 167 kts 284°
2026-04-28 20:06 45.64981 9.80453 1913 ft 159 kts 285°
2026-04-28 20:06 45.65265 9.78927 1711 ft 158 kts 285°
2026-04-28 20:07 45.65541 9.77424 1508 ft 155 kts 286°
2026-04-28 20:07 45.65721 9.76439 1397 ft 154 kts 285°
2026-04-28 20:07 45.66079 9.74446 1119 ft 155 kts 285°
2026-04-28 20:07 45.66355 9.72955 911 ft 154 kts 287°
2026-04-28 20:08 45.66633 9.71500 780 ft 145 kts 284°
2026-04-28 20:08 45.66838 9.70398 779 ft 83 kts 284°
2026-04-28 20:08 45.66852 9.69912 779 ft 18 kts 238°
2026-04-28 20:08 45.66818 9.69857 779 ft 0 kts 206°
2026-04-28 20:09 45.66636 9.70056 779 ft 0 kts 195°